SL-16 DEB, 22340

Orbit data source: Space-Track

SL-16 DEB, 22340 is space debris in LEO originally from a launch on Fri, 25 Dec 1992 UTC launched from the Tyuratam Missile And Space Complex (TTMTR). Debris objects in space refer to the collection of defunct objects orbiting the Earth. Examples of debris include non-operational satellites, rocket bodies, and fragments generated from explosions, collisions, or faulty payload assembly.

Loading next visibility...
Identifier
22340, 1992-093AD
Orbit
LEO
Country
Flag of CISCIS
Related business
Manufacturer
Unknown
Mission
Spacecraft
Bus & Motor
Unknown
Mass
Unknown
Launch date (UTC)
1992-12-25 (33 years ago)
Launch vehicle
Unknown
Launch site
Tyuratam Missile And Space Complex (TTMTR)
Object type
Payload
Rocket body
Debris
Shape & HBR
Unknown shape, 0.3 m
Radar Cross Section
Medium (>0.1 m² and <1 m²)

Expand to show TLE details & history
Last TLE update: 4 hours ago

TLE from 4 hours ago
0 SL-16 DEB
1 22340U 92093AD  26127.20050137  .00000016  00000-0  44421-4 0  9996
2 22340  70.8757 202.4261 0099069  65.4572 330.2408 13.94546922696901
Epoch: 2026-05-07T04:48Z
TLE epoch observation values (Epoch: 2026-05-07T04:48:43.318Z)
Latitude
33.00561°
Longitude
-81.8578°
Altitude
853.94 km
Speed
7.461 km/s
True Right ascension
14h 21m 29s
True Declination
32° 51' 03"
Sunlit
Object was in full shadow at epoch
Visualization orbit readout
Latitude
Unknown
Longitude
Unknown
Altitude
Unknown
Speed
Unknown
Apparent Right ascension
Unknown
Apparent Declination
Unknown
Sunlit
N/A
Visualization observer readout
Local Sidereal Time
16:20:06
Azimuth
Unknown
Elevation
Unknown
Doppler factor
Unknown
Orbital elements
Apogee altitude
982.906 km
Perigee altitude
838.487 km
Semi-major axis
7,288.834 km
Eccentricity
0.00991
Inclination
70.8757°
RAAN
202.4261°
Arg. of periapsis
65.4572°
True anomaly
329.6712°
Mean anomaly
330.2408°
Eccentric anomaly
329.95662°
Mean motion
3.48784 °/min
Orbital period
103.22 mins
BSTAR
0.000044421
Loading maneuver chart data...
Computing Atmospheric mass density...
Loading historical data...
Loading historical data...
Loading historical data...
Loading historical data...
Loading historical data...
Loading historical data...
Loading historical data...

Documentation

Showing up to 5 results
|